COSMOS 2251 DEB, 34560

Orbit data source: Space-Track

COSMOS 2251 DEB, 34560 is space debris in LEO originally from a launch on Wed, 16 Jun 1993 UTC launched from the Plesetsk Missile And Space Complex (PKMTR). The debris from Iridium 33, an American commercial communications satellite, has been tracked extensively since its accidental collision with the defunct Russian satellite Cosmos 2251 in 2009. This event, occurring at high speed in low Earth orbit (LEO), generated thousands of pieces of space debris, significantly increasing the risk of further collisions. The Iridium 33 debris cloud has impacted space traffic management and orbital debris mitigation strategies, making it a subject of ongoing study in space situational awareness.

Loading next visibility...
Identifier
34560, 1993-036UW
Orbit
LEO
Country
Flag of CISCIS
Related business
Manufacturer
Unknown
Mission
Spacecraft
Bus & Motor
Unknown
Mass
Unknown
Launch date (UTC)
1993-06-16 (33 years ago)
Launch vehicle
Unknown
Launch site
Plesetsk Missile And Space Complex (PKMTR)
Object type
Payload
Rocket body
Debris
Shape & HBR
Unknown shape, 0.1 m
Radar Cross Section
Small (<0.1 m²)

Expand to show TLE details & history
Last TLE update: 20 hours ago

TLE from 20 hours ago
0 COSMOS 2251 DEB
1 34560U 93036UW  26123.68800470  .00009620  00000-0  14047-2 0  9991
2 34560  74.0167 224.7861 0014644 276.1010 204.5955 14.75775409903439
Epoch: 2026-05-03T16:30Z
TLE epoch observation values (Epoch: 2026-05-03T16:30:43.606Z)
Latitude
55.92621°
Longitude
-89.39301°
Altitude
661.013 km
Speed
7.527 km/s
True Right ascension
01h 19m 30s
True Declination
55° 45' 51"
Sunlit
Object was in daylight at epoch
Visualization orbit readout
Latitude
Unknown
Longitude
Unknown
Altitude
Unknown
Speed
Unknown
Apparent Right ascension
Unknown
Apparent Declination
Unknown
Sunlit
N/A
Visualization observer readout
Local Sidereal Time
19:52:27
Azimuth
Unknown
Elevation
Unknown
Doppler factor
Unknown
Orbital elements
Apogee altitude
650.551 km
Perigee altitude
629.995 km
Semi-major axis
7,018.41 km
Eccentricity
0.00146
Inclination
74.0167°
RAAN
224.7861°
Arg. of periapsis
276.101°
True anomaly
204.52577°
Mean anomaly
204.5955°
Eccentric anomaly
204.56062°
Mean motion
3.69135 °/min
Orbital period
97.53 mins
BSTAR
0.0014047
Loading maneuver chart data...
Computing Atmospheric mass density...

Documentation

Showing up to 5 results
|